VIR412W DNMM-EGLL

Flight info

Callsign VIR412W
Flight time 6h 2m
Altitude 37000
Route BUDSI1Q BUDSI UB731 KIGRA UY333 MIGNI UY212 EREBO/N0492F380 UA604 TMS/N0494F370 UZ111 OPRIC/N0489F380 UZ111 ELO UR978 CSO UM998 KAMER DCT NAFOQ DCT SURJU/N0483F400 DCT PADKO DCT MRM DCT MTL DCT ETREK DCT MADOT DCT MOPEM DCT CACHI DCT AVLON DCT OKRIX DCT BRY/N0487F360 DCT CLM DCT KOPOR DCT ABNUR DCT DIMAL DCT ALESO
Aircraft A35K/H-SDE2E3GHIJ1J3J4J5LM1ORWXYZ/LB1D1

Departure

Time 2026-04-30 05:56
Airport Murtala Muhammed International Airport (DNMM)

Arrival

Time 2026-04-30 11:59
Airport London Heathrow Airport (EGLL)
Time Latitude Longitude Altitude Speed Heading
2026-04-30 05:35 6.58011 3.32206 100 ft 0 kts 114°
2026-04-30 05:47 6.58015 3.32197 100 ft 4 kts 112°
2026-04-30 05:47 6.58024 3.32173 101 ft 3 kts 106°
2026-04-30 05:48 6.58027 3.32156 100 ft 2 kts 88°
2026-04-30 05:48 6.58026 3.32145 99 ft 2 kts 61°
2026-04-30 05:48 6.58019 3.32136 98 ft 2 kts 35°
2026-04-30 05:48 6.58009 3.32130 100 ft 2 kts 24°
2026-04-30 05:49 6.57999 3.32126 101 ft 2 kts 21°
2026-04-30 05:49 6.57991 3.32123 100 ft 0 kts 20°
2026-04-30 05:51 6.58019 3.32134 98 ft 11 kts 21°
2026-04-30 05:51 6.58113 3.32171 102 ft 16 kts 22°
2026-04-30 05:52 6.58220 3.32204 104 ft 14 kts 352°
2026-04-30 05:52 6.58271 3.32129 104 ft 14 kts 277°
2026-04-30 05:52 6.58248 3.32027 101 ft 16 kts 244°
2026-04-30 05:52 6.58204 3.31922 101 ft 17 kts 246°
2026-04-30 05:53 6.58153 3.31806 101 ft 19 kts 248°
2026-04-30 05:53 6.58096 3.31672 95 ft 24 kts 246°
2026-04-30 05:53 6.58069 3.31551 83 ft 12 kts 298°
2026-04-30 05:53 6.58154 3.31525 85 ft 15 kts
2026-04-30 05:54 6.58264 3.31524 86 ft 17 kts 359°
2026-04-30 05:54 6.58394 3.31522 87 ft 19 kts 359°
2026-04-30 05:54 6.58530 3.31520 87 ft 20 kts 359°
2026-04-30 05:54 6.58674 3.31519 86 ft 21 kts 359°
2026-04-30 05:55 6.58796 3.31494 88 ft 15 kts 314°
2026-04-30 05:55 6.58804 3.31393 87 ft 15 kts 257°
2026-04-30 05:55 6.58736 3.31325 88 ft 14 kts 206°
2026-04-30 05:55 6.58638 3.31317 84 ft 17 kts 180°
2026-04-30 05:56 6.58328 3.31320 86 ft 77 kts 179°
2026-04-30 05:56 6.57587 3.31329 75 ft 135 kts 179°
2026-04-30 05:56 6.56481 3.31346 130 ft 178 kts 179°
2026-04-30 05:56 6.55258 3.31377 762 ft 175 kts 179°
2026-04-30 05:57 6.54045 3.31393 1456 ft 176 kts 180°
2026-04-30 05:57 6.52775 3.31233 1699 ft 191 kts 201°
2026-04-30 05:57 6.51778 3.30335 1961 ft 204 kts 242°
2026-04-30 05:57 6.51498 3.28895 2270 ft 216 kts 267°
2026-04-30 05:58 6.51462 3.27360 2742 ft 222 kts 268°
2026-04-30 05:58 6.51456 3.25786 3221 ft 228 kts 269°
2026-04-30 05:58 6.51802 3.24224 3668 ft 235 kts 298°
2026-04-30 05:58 6.52989 3.23110 4058 ft 243 kts 336°
2026-04-30 05:59 6.54716 3.22862 4207 ft 262 kts
2026-04-30 05:59 6.56571 3.22882 4554 ft 273 kts
2026-04-30 05:59 6.58477 3.22896 5136 ft 275 kts
2026-04-30 05:59 6.60393 3.22885 5736 ft 275 kts
2026-04-30 06:00 6.62315 3.22861 6343 ft 277 kts
2026-04-30 06:00 6.64252 3.22832 6884 ft 279 kts
2026-04-30 06:00 6.66205 3.22801 7416 ft 282 kts
2026-04-30 06:00 6.68172 3.22770 7960 ft 284 kts
2026-04-30 06:01 6.70161 3.22738 8510 ft 287 kts
2026-04-30 06:01 6.72166 3.22706 9068 ft 289 kts
2026-04-30 06:01 6.74186 3.22673 9634 ft 292 kts
2026-04-30 06:01 6.76229 3.22639 10135 ft 296 kts
2026-04-30 06:02 6.78331 3.22612 10379 ft 309 kts
2026-04-30 06:02 6.80530 3.22614 10590 ft 322 kts
2026-04-30 06:02 6.82798 3.22833 10802 ft 333 kts 11°
2026-04-30 06:02 6.85134 3.23155 11027 ft 345 kts 12°
2026-04-30 06:03 6.87548 3.23506 11226 ft 357 kts 12°
2026-04-30 06:03 6.90044 3.23865 11431 ft 367 kts 11°
2026-04-30 06:03 6.92609 3.24230 11636 ft 377 kts 11°
2026-04-30 06:03 6.95221 3.24597 11979 ft 381 kts 11°
2026-04-30 06:04 6.97859 3.24967 12383 ft 384 kts 11°
2026-04-30 06:04 7.00515 3.25339 12788 ft 386 kts 11°
2026-04-30 06:04 7.03185 3.25712 13204 ft 388 kts 11°
2026-04-30 06:05 7.08530 3.26461 13994 ft 392 kts 11°
2026-04-30 06:05 7.11227 3.26909 14321 ft 394 kts 14°
2026-04-30 06:05 7.13931 3.27436 14669 ft 396 kts 14°
2026-04-30 06:05 7.16648 3.27969 15024 ft 399 kts 14°
2026-04-30 06:06 7.19383 3.28500 15368 ft 402 kts 14°
2026-04-30 06:06 7.22146 3.29029 15724 ft 404 kts 14°
2026-04-30 06:06 7.24918 3.29556 16068 ft 407 kts 13°
2026-04-30 06:06 7.27715 3.30086 16420 ft 410 kts 13°
2026-04-30 06:07 7.30527 3.30618 16768 ft 412 kts 13°
2026-04-30 06:07 7.33356 3.31153 17114 ft 415 kts 13°
2026-04-30 06:07 7.36207 3.31691 17457 ft 418 kts 13°
2026-04-30 06:07 7.39075 3.32233 17789 ft 421 kts 13°
2026-04-30 06:08 7.41966 3.32778 18114 ft 423 kts 13°
2026-04-30 06:08 7.44871 3.33327 18415 ft 426 kts 13°
2026-04-30 06:08 7.47796 3.33879 18705 ft 428 kts 13°
2026-04-30 06:08 7.50733 3.34434 18997 ft 430 kts 13°
2026-04-30 06:09 7.53683 3.34991 19283 ft 432 kts 13°
2026-04-30 06:09 7.56647 3.35550 19567 ft 434 kts 13°
2026-04-30 06:09 7.59584 3.36105 19838 ft 436 kts 13°
2026-04-30 06:09 7.62579 3.36671 20112 ft 438 kts 13°
2026-04-30 06:10 7.65584 3.37239 20391 ft 440 kts 13°
2026-04-30 06:10 7.68601 3.37809 20662 ft 442 kts 13°
2026-04-30 06:10 7.71634 3.38382 20932 ft 444 kts 13°
2026-04-30 06:10 7.74677 3.38957 21209 ft 446 kts 13°
2026-04-30 06:11 7.76699 3.39339 21377 ft 447 kts 13°
2026-04-30 06:11 7.79789 3.39802 21631 ft 450 kts
2026-04-30 06:11 7.82916 3.40112 21896 ft 453 kts
2026-04-30 06:11 7.86065 3.40343 22155 ft 455 kts
2026-04-30 06:12 7.89234 3.40538 22407 ft 457 kts
2026-04-30 06:12 7.92413 3.40724 22662 ft 459 kts
2026-04-30 06:12 7.95603 3.40914 22918 ft 460 kts
2026-04-30 06:12 7.98808 3.41114 23159 ft 462 kts
2026-04-30 06:13 8.02020 3.41323 23396 ft 464 kts
2026-04-30 06:13 8.05250 3.41539 23626 ft 465 kts
2026-04-30 06:13 8.08483 3.41759 23843 ft 466 kts
2026-04-30 06:13 8.11732 3.41980 24053 ft 468 kts
2026-04-30 06:14 8.14984 3.42202 24268 ft 469 kts
2026-04-30 06:14 8.18208 3.42422 24474 ft 470 kts
2026-04-30 06:14 8.21476 3.42646 24688 ft 471 kts
2026-04-30 06:14 8.24749 3.42869 24896 ft 472 kts
2026-04-30 06:15 8.28029 3.43092 25100 ft 473 kts
2026-04-30 06:15 8.31325 3.43316 25308 ft 474 kts
2026-04-30 06:15 8.34621 3.43540 25521 ft 475 kts
2026-04-30 06:15 8.37926 3.43758 25720 ft 477 kts
2026-04-30 06:16 8.41239 3.43973 25922 ft 478 kts
2026-04-30 06:16 8.44566 3.44187 26125 ft 479 kts
2026-04-30 06:16 8.47899 3.44403 26330 ft 480 kts
2026-04-30 06:16 8.51239 3.44620 26528 ft 481 kts
2026-04-30 06:17 8.54591 3.44839 26728 ft 483 kts
2026-04-30 06:17 8.57946 3.45063 26928 ft 484 kts
2026-04-30 06:17 8.61313 3.45292 27121 ft 485 kts
2026-04-30 06:17 8.64692 3.45523 27320 ft 486 kts
2026-04-30 06:18 8.68026 3.45751 27513 ft 487 kts
2026-04-30 06:18 8.71418 3.45984 27702 ft 489 kts
2026-04-30 06:18 8.74819 3.46216 27893 ft 490 kts
2026-04-30 06:18 8.78230 3.46449 28077 ft 491 kts
2026-04-30 06:19 8.81645 3.46682 28267 ft 493 kts
2026-04-30 06:19 8.85066 3.46915 28446 ft 494 kts
2026-04-30 06:19 8.88505 3.47150 28622 ft 495 kts
2026-04-30 06:19 8.91949 3.47385 28800 ft 496 kts
2026-04-30 06:20 8.95406 3.47621 28963 ft 498 kts
2026-04-30 06:20 8.98871 3.47857 29126 ft 499 kts
2026-04-30 06:20 9.02339 3.48093 29291 ft 500 kts
2026-04-30 06:20 9.05773 3.48328 29450 ft 502 kts
2026-04-30 06:21 9.09265 3.48566 29611 ft 503 kts
2026-04-30 06:21 9.12757 3.48804 29784 ft 504 kts
2026-04-30 06:21 9.16264 3.49044 29946 ft 505 kts
2026-04-30 06:21 9.19780 3.49284 30081 ft 507 kts
2026-04-30 06:22 9.23310 3.49525 30232 ft 508 kts
2026-04-30 06:22 9.26837 3.49766 30460 ft 507 kts
2026-04-30 06:22 9.30354 3.50006 30692 ft 507 kts
2026-04-30 06:22 9.33871 3.50247 30932 ft 506 kts
2026-04-30 06:23 9.37381 3.50487 31186 ft 505 kts
2026-04-30 06:23 9.40895 3.50727 31433 ft 505 kts
2026-04-30 06:23 9.44399 3.50967 31667 ft 505 kts
2026-04-30 06:23 9.47881 3.51388 31889 ft 503 kts 12°
2026-04-30 06:24 9.51291 3.52196 32132 ft 502 kts 15°
2026-04-30 06:24 9.54619 3.53108 32370 ft 502 kts 17°
2026-04-30 06:24 9.57965 3.54087 32610 ft 502 kts 17°
2026-04-30 06:24 9.61313 3.55097 32839 ft 502 kts 18°
2026-04-30 06:25 9.64659 3.56117 33060 ft 502 kts 18°
2026-04-30 06:25 9.67998 3.57133 33304 ft 501 kts 18°
2026-04-30 06:25 9.71343 3.58146 33567 ft 501 kts 18°
2026-04-30 06:25 9.74690 3.59155 33840 ft 500 kts 17°
2026-04-30 06:26 9.78032 3.60158 34093 ft 500 kts 17°
2026-04-30 06:26 9.81366 3.61155 34371 ft 499 kts 17°
2026-04-30 06:26 9.84688 3.62148 34650 ft 497 kts 17°
2026-04-30 06:26 9.88007 3.63140 34959 ft 495 kts 17°
2026-04-30 06:27 9.91303 3.64125 35236 ft 493 kts 17°
2026-04-30 06:27 9.94549 3.65096 35507 ft 492 kts 17°
2026-04-30 06:27 9.97834 3.66079 35756 ft 492 kts 17°
2026-04-30 06:27 10.01115 3.67061 36013 ft 491 kts 17°
2026-04-30 06:28 10.04395 3.68043 36270 ft 490 kts 17°
2026-04-30 06:28 10.07660 3.69020 36528 ft 489 kts 17°
2026-04-30 06:28 10.10924 3.69998 36781 ft 488 kts 17°
2026-04-30 06:28 10.14192 3.70978 36934 ft 490 kts 17°
2026-04-30 06:29 10.17472 3.71961 36956 ft 492 kts 17°
2026-04-30 06:29 10.24014 3.73922 36952 ft 493 kts 17°
2026-04-30 06:30 10.30594 3.75896 36958 ft 493 kts 17°
2026-04-30 06:30 10.37167 3.77868 36953 ft 492 kts 17°
2026-04-30 06:31 10.43732 3.79839 36951 ft 492 kts 17°
2026-04-30 06:31 10.50305 3.81812 36947 ft 491 kts 17°
2026-04-30 06:32 10.56858 3.83780 36948 ft 491 kts 17°
2026-04-30 06:32 10.63366 3.85736 36948 ft 491 kts 17°
2026-04-30 06:33 10.69912 3.87705 36943 ft 490 kts 17°
2026-04-30 06:33 10.76456 3.89673 36942 ft 490 kts 17°
2026-04-30 06:34 10.83000 3.91643 36945 ft 490 kts 17°
2026-04-30 06:34 10.89534 3.93611 36944 ft 489 kts 17°
2026-04-30 06:35 10.96069 3.95579 36934 ft 489 kts 17°
2026-04-30 06:35 11.02606 3.97549 36940 ft 489 kts 17°
2026-04-30 06:36 11.09096 3.99506 36937 ft 489 kts 17°
2026-04-30 06:36 11.15620 4.01474 36935 ft 489 kts 17°
2026-04-30 06:37 11.22150 4.03445 36933 ft 489 kts 17°
2026-04-30 06:37 11.28675 4.05415 36928 ft 488 kts 17°
2026-04-30 06:38 11.35192 4.07384 36928 ft 489 kts 17°
2026-04-30 06:38 11.41682 4.09346 36935 ft 489 kts 17°
2026-04-30 06:39 11.48207 4.11320 36931 ft 489 kts 17°
2026-04-30 06:39 11.54736 4.13294 36930 ft 489 kts 17°
2026-04-30 06:40 11.61258 4.15269 36931 ft 489 kts 17°
2026-04-30 06:40 11.67783 4.17245 36927 ft 489 kts 17°
2026-04-30 06:41 11.74315 4.19224 36927 ft 489 kts 17°
2026-04-30 06:41 11.80839 4.21201 36927 ft 489 kts 17°
2026-04-30 06:42 11.87361 4.23179 36930 ft 489 kts 17°
2026-04-30 06:42 11.93838 4.25145 36931 ft 488 kts 17°
2026-04-30 06:43 12.00355 4.27124 36930 ft 488 kts 17°
2026-04-30 06:43 12.06866 4.29100 36929 ft 488 kts 17°
2026-04-30 06:44 12.13380 4.31079 36928 ft 488 kts 17°
2026-04-30 06:44 12.19893 4.33060 36927 ft 488 kts 17°
2026-04-30 06:45 12.26408 4.35041 36929 ft 489 kts 17°
2026-04-30 06:45 12.32897 4.37015 36929 ft 490 kts 17°
2026-04-30 06:46 12.39430 4.39004 36931 ft 490 kts 17°
2026-04-30 06:46 12.45975 4.40998 36926 ft 491 kts 17°
2026-04-30 06:47 12.52532 4.42996 36927 ft 491 kts 17°
2026-04-30 06:47 12.59088 4.44996 36930 ft 491 kts 17°
2026-04-30 06:48 12.65598 4.46982 36927 ft 491 kts 17°
2026-04-30 06:48 12.72144 4.48981 36928 ft 491 kts 17°
2026-04-30 06:49 12.78697 4.50982 36928 ft 491 kts 17°
2026-04-30 06:49 12.85250 4.52985 36929 ft 491 kts 17°
2026-04-30 06:50 12.91791 4.54984 36929 ft 490 kts 17°
2026-04-30 06:50 12.98336 4.56987 36930 ft 490 kts 17°
2026-04-30 06:51 13.04833 4.58976 36928 ft 490 kts 17°
2026-04-30 06:51 13.11453 4.60667 36930 ft 490 kts 12°
2026-04-30 06:52 13.18132 4.62064 36927 ft 490 kts 11°
2026-04-30 06:52 13.24810 4.63485 36930 ft 490 kts 12°
2026-04-30 06:53 13.31464 4.64965 36928 ft 489 kts 12°
2026-04-30 06:53 13.38116 4.66473 36928 ft 490 kts 12°
2026-04-30 06:54 13.44769 4.67987 36925 ft 490 kts 12°
2026-04-30 06:54 13.51433 4.69501 36924 ft 491 kts 12°
2026-04-30 06:55 13.58106 4.71016 36923 ft 491 kts 12°
2026-04-30 06:55 13.64785 4.72534 36925 ft 492 kts 12°
2026-04-30 06:56 13.71471 4.74059 36924 ft 492 kts 12°
2026-04-30 06:56 13.78163 4.75588 36923 ft 492 kts 12°
2026-04-30 06:57 13.84857 4.77105 36929 ft 493 kts 12°
2026-04-30 06:57 13.91521 4.78614 36924 ft 494 kts 12°
2026-04-30 06:58 13.98249 4.80140 36927 ft 495 kts 12°
2026-04-30 06:58 14.04978 4.81669 36923 ft 495 kts 12°
2026-04-30 06:59 14.11715 4.83201 36925 ft 496 kts 12°
2026-04-30 06:59 14.18458 4.84735 36925 ft 496 kts 12°
2026-04-30 07:00 14.25204 4.86271 36925 ft 496 kts 11°
2026-04-30 07:00 14.30811 4.87548 36926 ft 497 kts 11°
2026-04-30 07:01 14.38675 4.89341 36925 ft 497 kts 11°
2026-04-30 07:01 14.44298 4.90623 36925 ft 498 kts 11°
2026-04-30 07:02 14.51065 4.92168 36930 ft 498 kts 11°
2026-04-30 07:02 14.57844 4.93715 36928 ft 498 kts 11°
2026-04-30 07:03 14.64624 4.95264 36931 ft 499 kts 11°
2026-04-30 07:03 14.71401 4.96814 36930 ft 499 kts 11°
2026-04-30 07:04 14.78151 4.98358 36935 ft 499 kts 11°
2026-04-30 07:04 14.84935 4.99911 36937 ft 499 kts 11°
2026-04-30 07:05 14.95126 5.02246 36939 ft 500 kts 11°
2026-04-30 07:05 15.01924 5.03805 36935 ft 500 kts 11°
2026-04-30 07:06 15.08725 5.05365 36935 ft 501 kts 11°
2026-04-30 07:06 15.15531 5.06928 36933 ft 501 kts 11°
2026-04-30 07:07 15.22340 5.08492 36933 ft 501 kts 11°
2026-04-30 07:07 15.29115 5.10050 36929 ft 502 kts 11°
2026-04-30 07:08 15.35937 5.11619 36929 ft 502 kts 11°
2026-04-30 07:08 15.42756 5.13190 36932 ft 502 kts 10°
2026-04-30 07:09 15.49578 5.14761 36934 ft 502 kts 10°
2026-04-30 07:09 15.56410 5.16337 36931 ft 502 kts 10°
2026-04-30 07:10 15.63184 5.17899 36925 ft 502 kts 10°
2026-04-30 07:10 15.70013 5.19476 36932 ft 502 kts 10°
2026-04-30 07:11 15.76843 5.21054 36932 ft 502 kts 10°
2026-04-30 07:11 15.83659 5.22630 36935 ft 502 kts 10°
2026-04-30 07:12 15.90494 5.24211 36937 ft 502 kts 10°
2026-04-30 07:12 15.97320 5.25791 36935 ft 502 kts 10°
2026-04-30 07:13 16.04107 5.27363 36936 ft 502 kts 10°
2026-04-30 07:13 16.10940 5.28948 36933 ft 503 kts 10°
2026-04-30 07:14 16.17774 5.30533 36929 ft 503 kts 10°
2026-04-30 07:14 16.24611 5.32120 36936 ft 503 kts 10°
2026-04-30 07:15 16.31447 5.33709 36936 ft 503 kts 10°
2026-04-30 07:15 16.38287 5.35299 36935 ft 504 kts 10°
2026-04-30 07:16 16.45089 5.36881 36934 ft 504 kts
2026-04-30 07:16 16.51940 5.38477 36935 ft 504 kts
2026-04-30 07:17 16.58795 5.40074 36939 ft 504 kts
2026-04-30 07:18 16.69066 5.42469 36938 ft 504 kts
2026-04-30 07:18 16.75914 5.44068 36945 ft 504 kts
2026-04-30 07:19 16.82714 5.45656 36944 ft 504 kts
2026-04-30 07:19 16.89576 5.47261 36940 ft 504 kts
2026-04-30 07:20 16.96422 5.48862 36943 ft 504 kts
2026-04-30 07:20 17.03277 5.50468 36947 ft 505 kts
2026-04-30 07:21 17.10128 5.52072 36953 ft 505 kts
2026-04-30 07:21 17.16990 5.53681 36948 ft 504 kts
2026-04-30 07:22 17.27265 5.56093 36954 ft 504 kts
2026-04-30 07:22 17.34075 5.57693 36955 ft 504 kts
2026-04-30 07:23 17.40961 5.59312 36955 ft 504 kts
2026-04-30 07:23 17.47756 5.60911 36954 ft 504 kts
2026-04-30 07:24 17.54587 5.62519 36955 ft 503 kts
2026-04-30 07:24 17.61425 5.64130 36959 ft 503 kts
2026-04-30 07:25 17.68256 5.65741 36958 ft 503 kts
2026-04-30 07:25 17.75088 5.67354 36962 ft 503 kts
2026-04-30 07:26 17.81899 5.69053 36961 ft 505 kts 14°
2026-04-30 07:26 17.88565 5.71469 36962 ft 506 kts 16°
2026-04-30 07:27 17.95174 5.74051 36967 ft 507 kts 17°
2026-04-30 07:27 18.01731 5.76645 36963 ft 506 kts 17°
2026-04-30 07:28 18.08333 5.79247 36969 ft 507 kts 17°
2026-04-30 07:28 18.14929 5.81836 37090 ft 506 kts 17°
2026-04-30 07:29 18.18231 5.83131 37212 ft 506 kts 17°
2026-04-30 07:29 18.21529 5.84426 37340 ft 506 kts 17°
2026-04-30 07:29 18.24826 5.85720 37467 ft 505 kts 17°
2026-04-30 07:29 18.28124 5.87016 37603 ft 505 kts 17°
2026-04-30 07:30 18.34700 5.89601 37860 ft 504 kts 17°
2026-04-30 07:30 18.37984 5.90893 38004 ft 503 kts 17°
2026-04-30 07:30 18.41263 5.92183 38123 ft 503 kts 17°
2026-04-30 07:31 18.44538 5.93472 38266 ft 503 kts 17°
2026-04-30 07:31 18.47824 5.94766 38395 ft 502 kts 17°
2026-04-30 07:31 18.51104 5.96058 38526 ft 502 kts 17°
2026-04-30 07:31 18.54330 5.97330 38661 ft 502 kts 17°
2026-04-30 07:32 18.57604 5.98621 38775 ft 502 kts 17°
2026-04-30 07:32 18.60871 5.99910 38892 ft 501 kts 17°
2026-04-30 07:32 18.64138 6.01199 38965 ft 501 kts 17°
2026-04-30 07:33 18.70661 6.03775 38978 ft 501 kts 17°
2026-04-30 07:33 18.77185 6.06354 38977 ft 500 kts 17°
2026-04-30 07:34 18.83709 6.08934 38977 ft 500 kts 17°
2026-04-30 07:34 18.90229 6.11515 38978 ft 500 kts 17°
2026-04-30 07:35 18.96747 6.14097 38980 ft 500 kts 17°
2026-04-30 07:35 19.03271 6.16685 38981 ft 500 kts 17°
2026-04-30 07:36 19.09784 6.19269 38983 ft 500 kts 17°
2026-04-30 07:36 19.16301 6.21858 38983 ft 500 kts 17°
2026-04-30 07:37 19.22814 6.24447 38981 ft 500 kts 17°
2026-04-30 07:37 19.29285 6.27022 38989 ft 500 kts 17°
2026-04-30 07:38 19.35801 6.29616 38988 ft 500 kts 17°
2026-04-30 07:38 19.42306 6.32209 38994 ft 499 kts 17°
2026-04-30 07:39 19.48813 6.34805 38997 ft 499 kts 17°
2026-04-30 07:39 19.55313 6.37400 38993 ft 499 kts 17°
2026-04-30 07:40 19.61813 6.39997 38994 ft 499 kts 17°
2026-04-30 07:40 19.68319 6.42599 38998 ft 499 kts 17°
2026-04-30 07:41 19.74787 6.45188 38999 ft 499 kts 16°
2026-04-30 07:41 19.81293 6.47795 39000 ft 499 kts 16°
2026-04-30 07:42 19.87802 6.50405 39002 ft 499 kts 16°
2026-04-30 07:42 19.94303 6.53014 39002 ft 500 kts 16°
2026-04-30 07:43 20.00766 6.55610 39005 ft 500 kts 16°
2026-04-30 07:43 20.07356 6.57881 39005 ft 494 kts
2026-04-30 07:44 20.14099 6.58228 39008 ft 481 kts 348°
2026-04-30 07:44 20.20479 6.56421 39013 ft 472 kts 335°
2026-04-30 07:45 20.26583 6.53872 39011 ft 471 kts 333°
2026-04-30 07:45 20.32647 6.51226 39012 ft 471 kts 333°
2026-04-30 07:46 20.38728 6.48612 39008 ft 471 kts 334°
2026-04-30 07:46 20.44821 6.46031 39015 ft 471 kts 334°
2026-04-30 07:47 20.50908 6.43462 39015 ft 470 kts 334°
2026-04-30 07:47 20.56953 6.40909 39018 ft 470 kts 334°
2026-04-30 07:48 20.63036 6.38336 39018 ft 469 kts 334°
2026-04-30 07:48 20.69102 6.35767 39023 ft 469 kts 333°
2026-04-30 07:49 20.74145 6.33629 39027 ft 468 kts 333°
2026-04-30 07:49 20.80206 6.31058 39027 ft 468 kts 333°
2026-04-30 07:50 20.87235 6.28073 39027 ft 467 kts 333°
2026-04-30 07:50 20.92295 6.25923 39029 ft 467 kts 333°
2026-04-30 07:51 20.98289 6.23373 39029 ft 466 kts 333°
2026-04-30 07:51 21.04315 6.20807 39031 ft 466 kts 333°
2026-04-30 07:52 21.10334 6.18243 39034 ft 465 kts 333°
2026-04-30 07:52 21.16347 6.15679 39037 ft 465 kts 333°
2026-04-30 07:53 21.22364 6.13111 39041 ft 465 kts 333°
2026-04-30 07:53 21.28334 6.10560 39044 ft 464 kts 333°
2026-04-30 07:54 21.34331 6.07996 39045 ft 464 kts 333°
2026-04-30 07:54 21.40335 6.05427 39048 ft 463 kts 333°
2026-04-30 07:55 21.46324 6.02861 39048 ft 463 kts 332°
2026-04-30 07:55 21.52314 6.00293 39054 ft 463 kts 332°
2026-04-30 07:56 21.58303 5.97723 39057 ft 463 kts 332°
2026-04-30 07:56 21.64246 5.95170 39052 ft 463 kts 332°
2026-04-30 07:57 21.70234 5.92597 39064 ft 463 kts 332°
2026-04-30 07:57 21.76211 5.90025 39057 ft 462 kts 332°
2026-04-30 07:58 21.82197 5.87447 39062 ft 463 kts 332°
2026-04-30 07:58 21.88172 5.84872 39060 ft 463 kts 332°
2026-04-30 07:59 21.94155 5.82291 39063 ft 463 kts 332°
2026-04-30 07:59 22.00094 5.79726 39066 ft 463 kts 332°
2026-04-30 08:00 22.09061 5.75849 39073 ft 462 kts 332°
2026-04-30 08:00 22.15040 5.73262 39069 ft 463 kts 332°
2026-04-30 08:01 22.21019 5.70672 39072 ft 463 kts 332°
2026-04-30 08:01 22.26997 5.68080 39079 ft 463 kts 332°
2026-04-30 08:02 22.35969 5.64185 39083 ft 463 kts 332°
2026-04-30 08:03 22.47905 5.58995 39088 ft 464 kts 331°
2026-04-30 08:04 22.53897 5.56386 39137 ft 464 kts 331°
2026-04-30 08:04 22.59888 5.53775 39185 ft 464 kts 331°
2026-04-30 08:05 22.65883 5.51160 39223 ft 464 kts 331°
2026-04-30 08:05 22.71880 5.48542 39262 ft 464 kts 331°
2026-04-30 08:06 22.77948 5.46082 39266 ft 471 kts 337°
2026-04-30 08:06 22.84537 5.45155 39267 ft 489 kts 354°
2026-04-30 08:07 22.91362 5.45699 39260 ft 494 kts 358°
2026-04-30 08:07 22.98168 5.46536 39224 ft 495 kts 359°
2026-04-30 08:08 23.05030 5.47389 39199 ft 496 kts 359°
2026-04-30 08:08 23.11876 5.48195 39169 ft 494 kts 358°
2026-04-30 08:09 23.18722 5.48974 39161 ft 495 kts 358°
2026-04-30 08:09 23.25566 5.49749 39159 ft 494 kts 358°
2026-04-30 08:10 23.32402 5.50528 39166 ft 493 kts 358°
2026-04-30 08:10 23.39215 5.51306 39162 ft 492 kts 358°
2026-04-30 08:11 23.46021 5.52090 39157 ft 491 kts 358°
2026-04-30 08:11 23.52808 5.52868 39150 ft 490 kts 358°
2026-04-30 08:12 23.59555 5.53638 39151 ft 490 kts 358°
2026-04-30 08:12 23.66350 5.54416 39146 ft 490 kts 358°
2026-04-30 08:13 23.73128 5.55196 39138 ft 490 kts 358°
2026-04-30 08:13 23.79902 5.55974 39135 ft 489 kts 358°
2026-04-30 08:14 23.86672 5.56752 39131 ft 489 kts 358°
2026-04-30 08:14 23.93443 5.57534 39128 ft 489 kts 358°
2026-04-30 08:15 24.00211 5.58314 39126 ft 489 kts 358°
2026-04-30 08:15 24.06926 5.59091 39129 ft 489 kts 358°
2026-04-30 08:16 24.13689 5.59872 39121 ft 488 kts 358°
2026-04-30 08:16 24.20440 5.60651 39118 ft 487 kts 358°
2026-04-30 08:17 24.27184 5.61431 39119 ft 487 kts 357°
2026-04-30 08:17 24.33924 5.62224 39117 ft 487 kts 357°
2026-04-30 08:18 24.40677 5.62999 39124 ft 486 kts 357°
2026-04-30 08:18 24.47357 5.63771 39114 ft 486 kts 357°
2026-04-30 08:19 24.54095 5.64559 39106 ft 487 kts 357°
2026-04-30 08:19 24.60882 5.65346 39118 ft 492 kts 358°
2026-04-30 08:20 24.67666 5.66157 39107 ft 489 kts 357°
2026-04-30 08:20 24.74382 5.66944 39091 ft 487 kts 356°
2026-04-30 08:21 24.81122 5.67714 39097 ft 487 kts 357°
2026-04-30 08:21 24.87880 5.68499 39096 ft 487 kts 357°
2026-04-30 08:22 24.94631 5.69291 39091 ft 488 kts 357°
2026-04-30 08:22 25.01382 5.70084 39088 ft 488 kts 357°
2026-04-30 08:23 25.08099 5.70873 39084 ft 488 kts 357°
2026-04-30 08:23 25.14844 5.71666 39085 ft 488 kts 357°
2026-04-30 08:24 25.21593 5.72460 39081 ft 488 kts 357°
2026-04-30 08:24 25.28337 5.73253 39082 ft 487 kts 357°
2026-04-30 08:25 25.35083 5.74049 39082 ft 488 kts 356°
2026-04-30 08:25 25.41837 5.74845 39075 ft 488 kts 356°
2026-04-30 08:26 25.48550 5.75639 39074 ft 487 kts 356°
2026-04-30 08:26 25.55303 5.76438 39071 ft 487 kts 356°
2026-04-30 08:27 25.62044 5.77235 39071 ft 487 kts 356°
2026-04-30 08:27 25.68794 5.78035 39072 ft 487 kts 356°
2026-04-30 08:28 25.75538 5.78835 39055 ft 488 kts 356°
2026-04-30 08:28 25.82285 5.79638 39067 ft 487 kts 356°
2026-04-30 08:29 25.89037 5.80442 39068 ft 487 kts 356°
2026-04-30 08:29 25.95781 5.81246 39079 ft 487 kts 356°
2026-04-30 08:30 26.02487 5.82045 39068 ft 488 kts 356°
2026-04-30 08:30 26.09238 5.82850 39071 ft 487 kts 356°
2026-04-30 08:31 26.15988 5.83657 39066 ft 488 kts 356°
2026-04-30 08:31 26.22739 5.84465 39069 ft 487 kts 356°
2026-04-30 08:32 26.29481 5.85271 39058 ft 487 kts 356°
2026-04-30 08:32 26.36230 5.86078 39049 ft 487 kts 356°
2026-04-30 08:33 26.42977 5.86889 39049 ft 488 kts 356°
2026-04-30 08:33 26.49728 5.87702 39039 ft 488 kts 356°
2026-04-30 08:34 26.56426 5.88510 39028 ft 487 kts 356°
2026-04-30 08:34 26.63175 5.89323 39020 ft 488 kts 356°
2026-04-30 08:35 26.69918 5.90133 39008 ft 488 kts 356°
2026-04-30 08:35 26.76669 5.90943 39002 ft 487 kts 356°
2026-04-30 08:36 26.83417 5.91761 38996 ft 487 kts 356°
2026-04-30 08:36 26.90174 5.92581 38995 ft 487 kts 355°
2026-04-30 08:37 26.96869 5.93394 38990 ft 487 kts 355°
2026-04-30 08:37 27.03610 5.94211 38985 ft 488 kts 355°
2026-04-30 08:38 27.10371 5.95027 38991 ft 488 kts 355°
2026-04-30 08:38 27.17117 5.95852 38983 ft 488 kts 355°
2026-04-30 08:39 27.23862 5.96675 38988 ft 487 kts 355°
2026-04-30 08:39 27.29482 5.97361 38983 ft 487 kts 355°
2026-04-30 08:40 27.37321 5.98317 38980 ft 487 kts 355°
2026-04-30 08:40 27.44072 5.99142 38988 ft 487 kts 355°
2026-04-30 08:41 27.49694 5.99828 38984 ft 487 kts 355°
2026-04-30 08:41 27.56449 6.00655 38987 ft 488 kts 355°
2026-04-30 08:42 27.63191 6.01483 38987 ft 488 kts 355°
2026-04-30 08:42 27.69941 6.02312 38986 ft 488 kts 355°
2026-04-30 08:43 27.76694 6.03143 38985 ft 488 kts 355°
2026-04-30 08:43 27.83449 6.03975 38983 ft 488 kts 355°
2026-04-30 08:44 27.90163 6.04802 38981 ft 488 kts 355°
2026-04-30 08:44 27.96918 6.05635 38979 ft 488 kts 355°
2026-04-30 08:45 28.03673 6.06469 38978 ft 488 kts 355°
2026-04-30 08:45 28.10435 6.07306 38977 ft 488 kts 355°
2026-04-30 08:46 28.17194 6.08144 38978 ft 488 kts 355°
2026-04-30 08:46 28.23960 6.08983 38978 ft 488 kts 355°
2026-04-30 08:47 28.30676 6.09819 38975 ft 488 kts 355°
2026-04-30 08:47 28.37440 6.10660 38977 ft 488 kts 355°
2026-04-30 08:48 28.44196 6.11500 38980 ft 488 kts 355°
2026-04-30 08:48 28.50950 6.12340 38975 ft 488 kts 355°
2026-04-30 08:49 28.57709 6.13185 38973 ft 488 kts 355°
2026-04-30 08:49 28.64460 6.14029 38973 ft 488 kts 355°
2026-04-30 08:50 28.71219 6.14878 38973 ft 488 kts 355°
2026-04-30 08:50 28.77936 6.15718 38972 ft 488 kts 355°
2026-04-30 08:51 28.84687 6.16565 38967 ft 488 kts 355°
2026-04-30 08:51 28.91447 6.17416 38973 ft 488 kts 355°
2026-04-30 08:52 28.98211 6.18267 38968 ft 488 kts 355°
2026-04-30 08:52 29.04966 6.19117 38964 ft 488 kts 355°
2026-04-30 08:53 29.11680 6.19964 38966 ft 488 kts 355°
2026-04-30 08:53 29.18435 6.20818 38959 ft 488 kts 355°
2026-04-30 08:54 29.25188 6.21675 38961 ft 488 kts 355°
2026-04-30 08:54 29.31939 6.22530 38964 ft 488 kts 355°
2026-04-30 08:55 29.38691 6.23384 38966 ft 488 kts 355°
2026-04-30 08:55 29.45445 6.24241 38964 ft 488 kts 355°
2026-04-30 08:56 29.52151 6.25094 38966 ft 488 kts 355°
2026-04-30 08:56 29.58900 6.25954 38964 ft 488 kts 355°
2026-04-30 08:57 29.65656 6.26816 38963 ft 488 kts 355°
2026-04-30 08:57 29.72407 6.27678 38964 ft 488 kts 355°
2026-04-30 08:58 29.79160 6.28542 38959 ft 488 kts 355°
2026-04-30 08:58 29.85916 6.29407 38962 ft 488 kts 355°
2026-04-30 08:59 29.92666 6.30272 38962 ft 488 kts 355°
2026-04-30 08:59 29.99369 6.31132 38966 ft 488 kts 355°
2026-04-30 09:00 30.06117 6.32000 38966 ft 488 kts 355°
2026-04-30 09:00 30.12868 6.32869 38965 ft 488 kts 355°
2026-04-30 09:01 30.19621 6.33740 38962 ft 488 kts 355°
2026-04-30 09:01 30.26373 6.34612 38963 ft 488 kts 355°
2026-04-30 09:02 30.36455 6.35915 38958 ft 488 kts 355°
2026-04-30 09:02 30.43201 6.36789 38943 ft 488 kts 355°
2026-04-30 09:03 30.49949 6.37665 38947 ft 488 kts 355°
2026-04-30 09:03 30.56698 6.38543 38951 ft 488 kts 355°
2026-04-30 09:04 30.63454 6.39421 38953 ft 488 kts 355°
2026-04-30 09:04 30.70221 6.40302 38958 ft 488 kts 355°
2026-04-30 09:05 30.76932 6.41178 38959 ft 488 kts 355°
2026-04-30 09:05 30.83687 6.42060 38955 ft 488 kts 355°
2026-04-30 09:06 30.90442 6.42944 38955 ft 488 kts 355°
2026-04-30 09:06 30.97195 6.43830 38956 ft 488 kts 355°
2026-04-30 09:07 31.03953 6.44716 38953 ft 488 kts 356°
2026-04-30 09:07 31.10708 6.45603 38956 ft 488 kts 356°
2026-04-30 09:08 31.17429 6.46489 38958 ft 489 kts 356°
2026-04-30 09:08 31.24193 6.47380 38954 ft 489 kts 356°
2026-04-30 09:09 31.30953 6.48272 38959 ft 488 kts 356°
2026-04-30 09:09 31.37710 6.49165 38959 ft 488 kts 356°
2026-04-30 09:10 31.44469 6.50060 38964 ft 488 kts 356°
2026-04-30 09:10 31.51223 6.50955 38962 ft 488 kts 356°
2026-04-30 09:11 31.57978 6.51852 38967 ft 488 kts 356°
2026-04-30 09:11 31.64726 6.52749 38968 ft 488 kts 356°
2026-04-30 09:12 31.71475 6.53649 38973 ft 487 kts 356°
2026-04-30 09:12 31.78174 6.54541 38964 ft 487 kts 356°
2026-04-30 09:13 31.84915 6.55440 38970 ft 487 kts 357°
2026-04-30 09:13 31.91666 6.56342 38970 ft 488 kts 357°
2026-04-30 09:14 31.98409 6.57245 38974 ft 488 kts 357°
2026-04-30 09:14 32.05159 6.58151 38974 ft 487 kts 357°
2026-04-30 09:15 32.11866 6.59052 38979 ft 487 kts 357°
2026-04-30 09:15 32.18616 6.59961 38982 ft 488 kts 358°
2026-04-30 09:16 32.25361 6.60870 38977 ft 488 kts 358°
2026-04-30 09:16 32.32064 6.61772 38978 ft 488 kts 358°
2026-04-30 09:17 32.38809 6.62684 38981 ft 488 kts 358°
2026-04-30 09:17 32.45548 6.63597 38980 ft 488 kts 358°
2026-04-30 09:18 32.52294 6.64511 38982 ft 488 kts 358°
2026-04-30 09:18 32.59040 6.65426 38978 ft 487 kts 359°
2026-04-30 09:19 32.65786 6.66343 38973 ft 487 kts 359°
2026-04-30 09:19 32.72535 6.67262 38974 ft 488 kts 359°
2026-04-30 09:20 32.79277 6.68182 38978 ft 488 kts 359°
2026-04-30 09:20 32.85988 6.69099 38979 ft 488 kts 359°
2026-04-30 09:21 32.92737 6.70022 38983 ft 488 kts 359°
2026-04-30 09:21 32.99490 6.70947 38982 ft 488 kts 359°
2026-04-30 09:22 33.06240 6.71874 38984 ft 488 kts 359°
2026-04-30 09:22 33.12999 6.72803 38985 ft 488 kts 359°
2026-04-30 09:23 33.19719 6.73728 38988 ft 489 kts 359°
2026-04-30 09:23 33.26475 6.74659 38993 ft 489 kts 359°
2026-04-30 09:24 33.33231 6.75592 38993 ft 489 kts 359°
2026-04-30 09:24 33.39992 6.76527 38996 ft 489 kts 359°
2026-04-30 09:25 33.46749 6.77463 38995 ft 489 kts 360°
2026-04-30 09:25 33.53477 6.77863 38996 ft 481 kts 352°
2026-04-30 09:26 33.60154 6.77566 38993 ft 479 kts 350°
2026-04-30 09:26 33.66813 6.77142 38996 ft 478 kts 350°
2026-04-30 09:27 33.73458 6.76711 38996 ft 478 kts 350°
2026-04-30 09:27 33.80061 6.76299 39001 ft 478 kts 350°
2026-04-30 09:28 33.86714 6.75893 38998 ft 479 kts 351°
2026-04-30 09:28 33.93370 6.75488 39002 ft 479 kts 351°
2026-04-30 09:29 34.00022 6.75081 39001 ft 479 kts 351°
2026-04-30 09:29 34.06683 6.74673 39004 ft 479 kts 351°
2026-04-30 09:30 34.12216 6.74334 39001 ft 479 kts 351°
2026-04-30 09:30 34.18882 6.73924 38999 ft 479 kts 351°
2026-04-30 09:31 34.25548 6.73514 39003 ft 479 kts 351°
2026-04-30 09:31 34.32163 6.73107 39003 ft 479 kts 351°
2026-04-30 09:32 34.38827 6.72695 39005 ft 479 kts 351°
2026-04-30 09:32 34.45491 6.72283 39002 ft 479 kts 351°
2026-04-30 09:33 34.52152 6.71871 39008 ft 479 kts 351°
2026-04-30 09:33 34.58814 6.71458 39005 ft 479 kts 351°
2026-04-30 09:34 34.65443 6.71046 39010 ft 479 kts 351°
2026-04-30 09:34 34.72113 6.70631 39019 ft 480 kts 351°
2026-04-30 09:35 34.78774 6.70216 39023 ft 480 kts 351°
2026-04-30 09:35 34.85438 6.69803 39032 ft 479 kts 351°
2026-04-30 09:36 34.92098 6.69397 39038 ft 479 kts 351°
2026-04-30 09:36 34.98767 6.68988 39045 ft 480 kts 351°
2026-04-30 09:37 35.05436 6.68576 39048 ft 479 kts 351°
2026-04-30 09:37 35.12096 6.68165 39062 ft 479 kts 351°
2026-04-30 09:38 35.18755 6.67757 39056 ft 479 kts 351°
2026-04-30 09:38 35.25412 6.67350 39059 ft 479 kts 351°
2026-04-30 09:39 35.32019 6.66939 39064 ft 478 kts 351°
2026-04-30 09:39 35.38677 6.66523 39058 ft 478 kts 351°
2026-04-30 09:40 35.45331 6.66109 39060 ft 478 kts 351°
2026-04-30 09:40 35.51988 6.65696 39056 ft 478 kts 351°
2026-04-30 09:41 35.58636 6.65282 39071 ft 478 kts 351°
2026-04-30 09:41 35.65291 6.64866 39082 ft 478 kts 351°
2026-04-30 09:42 35.71938 6.64451 39080 ft 478 kts 351°
2026-04-30 09:42 35.78537 6.64038 39085 ft 478 kts 351°
2026-04-30 09:43 35.85173 6.63622 39084 ft 477 kts 351°
2026-04-30 09:43 35.91812 6.63204 39080 ft 477 kts 351°
2026-04-30 09:44 35.98450 6.62786 39074 ft 478 kts 351°
2026-04-30 09:44 36.05087 6.62367 39085 ft 477 kts 351°
2026-04-30 09:45 36.11727 6.61947 39094 ft 478 kts 351°
2026-04-30 09:45 36.18368 6.61526 39109 ft 478 kts 351°
2026-04-30 09:46 36.24969 6.61108 39103 ft 478 kts 352°
2026-04-30 09:46 36.31564 6.60387 39102 ft 474 kts 347°
2026-04-30 09:47 36.38104 6.59241 39101 ft 473 kts 346°
2026-04-30 09:47 36.44615 6.58020 39091 ft 473 kts 346°
2026-04-30 09:48 36.51134 6.56790 39085 ft 474 kts 346°
2026-04-30 09:48 36.57654 6.55567 39077 ft 474 kts 346°
2026-04-30 09:49 36.64178 6.54347 39068 ft 473 kts 346°
2026-04-30 09:49 36.70690 6.53132 39079 ft 473 kts 346°
2026-04-30 09:50 36.77169 6.51917 39076 ft 474 kts 346°
2026-04-30 09:50 36.83703 6.50689 39075 ft 474 kts 346°
2026-04-30 09:51 36.90230 6.49463 39080 ft 474 kts 346°
2026-04-30 09:51 36.96751 6.48235 39080 ft 474 kts 346°
2026-04-30 09:52 37.03272 6.47007 39078 ft 474 kts 346°
2026-04-30 09:52 37.09757 6.45782 39245 ft 474 kts 346°
2026-04-30 09:53 37.13027 6.45163 39366 ft 474 kts 346°
2026-04-30 09:53 37.16286 6.44545 39488 ft 474 kts 346°
2026-04-30 09:53 37.19548 6.43926 39598 ft 474 kts 346°
2026-04-30 09:53 37.22805 6.43307 39720 ft 474 kts 346°
2026-04-30 09:54 37.26071 6.42687 39841 ft 474 kts 346°
2026-04-30 09:54 37.29329 6.42067 39949 ft 474 kts 346°
2026-04-30 09:54 37.32599 6.41445 40057 ft 474 kts 346°
2026-04-30 09:54 37.35817 6.40832 40071 ft 474 kts 346°
2026-04-30 09:55 37.42346 6.39587 40073 ft 474 kts 346°
2026-04-30 09:55 37.48875 6.38340 40070 ft 474 kts 346°
2026-04-30 09:56 37.55397 6.37092 40071 ft 474 kts 346°
2026-04-30 09:56 37.61924 6.35841 40070 ft 474 kts 346°
2026-04-30 09:57 37.68440 6.34590 40072 ft 474 kts 346°
2026-04-30 09:57 37.74962 6.33336 40067 ft 473 kts 346°
2026-04-30 09:58 37.81429 6.32089 40068 ft 473 kts 346°
2026-04-30 09:58 37.87935 6.30833 40068 ft 473 kts 346°
2026-04-30 09:59 38.00941 6.28315 40070 ft 473 kts 346°
2026-04-30 10:00 38.10705 6.26419 40066 ft 472 kts 346°
2026-04-30 10:01 38.20451 6.24522 40064 ft 472 kts 346°
2026-04-30 10:02 38.30146 6.22629 40063 ft 472 kts 346°
2026-04-30 10:02 38.36640 6.21358 40063 ft 471 kts 346°
2026-04-30 10:03 38.43121 6.20087 40061 ft 471 kts 346°
2026-04-30 10:03 38.49610 6.18813 40062 ft 471 kts 346°
2026-04-30 10:04 38.56098 6.17536 40064 ft 471 kts 346°
2026-04-30 10:04 38.62579 6.16259 40061 ft 471 kts 346°
2026-04-30 10:05 38.69064 6.14979 40054 ft 471 kts 346°
2026-04-30 10:05 38.75540 6.13697 40061 ft 471 kts 346°
2026-04-30 10:06 38.82017 6.12414 40069 ft 471 kts 346°
2026-04-30 10:06 38.88454 6.11135 40067 ft 471 kts 346°
2026-04-30 10:07 38.94933 6.09847 40068 ft 471 kts 346°
2026-04-30 10:07 39.01423 6.08556 40063 ft 471 kts 346°
2026-04-30 10:08 39.07930 6.07387 40067 ft 472 kts 347°
2026-04-30 10:08 39.14447 6.06280 40070 ft 472 kts 347°
2026-04-30 10:09 39.20957 6.05159 40060 ft 472 kts 347°
2026-04-30 10:09 39.27437 6.04023 40062 ft 472 kts 347°
2026-04-30 10:10 39.33945 6.02875 40065 ft 472 kts 347°
2026-04-30 10:10 39.40454 6.01723 40063 ft 472 kts 347°
2026-04-30 10:11 39.46967 6.00569 40066 ft 472 kts 347°
2026-04-30 10:11 39.53475 5.99415 40067 ft 472 kts 347°
2026-04-30 10:12 39.59983 5.98258 40067 ft 472 kts 347°
2026-04-30 10:12 39.66451 5.97107 40061 ft 472 kts 347°
2026-04-30 10:13 39.72955 5.95947 40057 ft 472 kts 347°
2026-04-30 10:13 39.79461 5.94784 40069 ft 472 kts 347°
2026-04-30 10:14 39.85963 5.93619 40063 ft 472 kts 347°
2026-04-30 10:14 39.95729 5.91866 40070 ft 472 kts 347°
2026-04-30 10:15 40.02201 5.90701 40069 ft 473 kts 347°
2026-04-30 10:15 40.08719 5.89526 40078 ft 473 kts 347°
2026-04-30 10:16 40.15241 5.88348 40073 ft 473 kts 347°
2026-04-30 10:17 40.25028 5.86576 40072 ft 473 kts 347°
2026-04-30 10:17 40.34832 5.84796 40075 ft 474 kts 347°
2026-04-30 10:18 40.40262 5.83808 40067 ft 474 kts 347°
2026-04-30 10:19 40.51143 5.81927 40073 ft 475 kts 348°
2026-04-30 10:19 40.56648 5.81086 40074 ft 475 kts 348°
2026-04-30 10:20 40.63178 5.80083 40073 ft 475 kts 348°
2026-04-30 10:20 40.73040 5.78532 40081 ft 476 kts 348°
2026-04-30 10:21 40.79611 5.77487 40076 ft 476 kts 348°
2026-04-30 10:21 40.86187 5.76440 40080 ft 476 kts 348°
2026-04-30 10:22 40.92769 5.75389 40083 ft 476 kts 348°
2026-04-30 10:22 40.99354 5.74337 40081 ft 477 kts 348°
2026-04-30 10:23 41.05942 5.73282 40085 ft 477 kts 348°
2026-04-30 10:23 41.12534 5.72225 40086 ft 477 kts 348°
2026-04-30 10:24 41.19136 5.71163 40085 ft 478 kts 348°
2026-04-30 10:24 41.25696 5.70107 40088 ft 478 kts 348°
2026-04-30 10:25 41.32307 5.69040 40087 ft 478 kts 348°
2026-04-30 10:25 41.38917 5.67971 40093 ft 478 kts 348°
2026-04-30 10:26 41.45528 5.66899 40092 ft 479 kts 348°
2026-04-30 10:26 41.52144 5.65825 40097 ft 479 kts 348°
2026-04-30 10:27 41.58767 5.64747 40094 ft 479 kts 349°
2026-04-30 10:27 41.65346 5.63674 40099 ft 479 kts 349°
2026-04-30 10:28 41.71980 5.62589 40094 ft 479 kts 349°
2026-04-30 10:28 41.78609 5.61504 40088 ft 480 kts 349°
2026-04-30 10:29 41.85219 5.60301 40105 ft 479 kts 348°
2026-04-30 10:29 41.91822 5.59001 40098 ft 479 kts 348°
2026-04-30 10:30 41.98377 5.57717 40099 ft 479 kts 348°
2026-04-30 10:30 42.04985 5.56441 40102 ft 480 kts 348°
2026-04-30 10:31 42.11601 5.55169 40105 ft 480 kts 348°
2026-04-30 10:31 42.18222 5.53896 40107 ft 480 kts 348°
2026-04-30 10:32 42.24837 5.52619 40109 ft 481 kts 348°
2026-04-30 10:32 42.31466 5.51336 40110 ft 481 kts 348°
2026-04-30 10:33 42.38093 5.50051 40116 ft 481 kts 348°
2026-04-30 10:33 42.44684 5.48771 40116 ft 481 kts 348°
2026-04-30 10:34 42.51313 5.47480 40120 ft 481 kts 348°
2026-04-30 10:34 42.57938 5.46187 40120 ft 481 kts 348°
2026-04-30 10:35 42.64578 5.44888 40122 ft 481 kts 349°
2026-04-30 10:35 42.71209 5.43589 40121 ft 481 kts 349°
2026-04-30 10:36 42.77839 5.42286 40125 ft 482 kts 349°
2026-04-30 10:36 42.84431 5.40988 40127 ft 482 kts 349°
2026-04-30 10:37 42.91064 5.39679 40128 ft 482 kts 349°
2026-04-30 10:37 42.97706 5.38366 40131 ft 482 kts 349°
2026-04-30 10:38 43.04346 5.37050 40128 ft 482 kts 349°
2026-04-30 10:38 43.10989 5.35731 40124 ft 482 kts 349°
2026-04-30 10:39 43.17638 5.34408 40116 ft 482 kts 349°
2026-04-30 10:39 43.24309 5.33332 40112 ft 484 kts 354°
2026-04-30 10:40 43.31045 5.32906 40106 ft 485 kts 355°
2026-04-30 10:40 43.37754 5.32189 40103 ft 482 kts 347°
2026-04-30 10:41 43.44197 5.29781 40102 ft 479 kts 340°
2026-04-30 10:41 43.50536 5.26920 40103 ft 479 kts 339°
2026-04-30 10:42 43.56848 5.23971 40103 ft 479 kts 339°
2026-04-30 10:42 43.63123 5.21062 40104 ft 479 kts 339°
2026-04-30 10:43 43.69448 5.18150 40104 ft 479 kts 339°
2026-04-30 10:43 43.75770 5.15244 40107 ft 479 kts 339°
2026-04-30 10:44 43.82097 5.12328 40126 ft 479 kts 339°
2026-04-30 10:44 43.88423 5.09406 40128 ft 479 kts 339°
2026-04-30 10:45 43.94739 5.06481 40129 ft 479 kts 339°
2026-04-30 10:45 44.01057 5.03547 40134 ft 479 kts 339°
2026-04-30 10:46 44.07376 5.00606 40121 ft 479 kts 339°
2026-04-30 10:46 44.13652 4.97678 40131 ft 478 kts 339°
2026-04-30 10:47 44.19961 4.94728 40129 ft 478 kts 339°
2026-04-30 10:47 44.26278 4.91770 40128 ft 479 kts 339°
2026-04-30 10:48 44.32599 4.88803 40131 ft 478 kts 339°
2026-04-30 10:48 44.38913 4.85831 40134 ft 478 kts 339°
2026-04-30 10:49 44.45219 4.82857 40125 ft 478 kts 339°
2026-04-30 10:49 44.51530 4.79873 40128 ft 478 kts 339°
2026-04-30 10:50 44.57977 4.77499 40124 ft 481 kts 347°
2026-04-30 10:50 44.64541 4.75921 40128 ft 481 kts 348°
2026-04-30 10:51 44.71169 4.74479 40128 ft 482 kts 349°
2026-04-30 10:51 44.77801 4.73039 40132 ft 482 kts 349°
2026-04-30 10:52 44.84424 4.71577 40129 ft 481 kts 348°
2026-04-30 10:52 44.91046 4.70102 40128 ft 482 kts 348°
2026-04-30 10:53 44.97664 4.68621 40131 ft 482 kts 348°
2026-04-30 10:53 45.04247 4.67145 40126 ft 481 kts 348°
2026-04-30 10:54 45.10861 4.65656 40124 ft 481 kts 348°
2026-04-30 10:54 45.17478 4.64166 40121 ft 481 kts 348°
2026-04-30 10:55 45.24096 4.62672 40118 ft 482 kts 348°
2026-04-30 10:55 45.30721 4.61155 40125 ft 482 kts 348°
2026-04-30 10:56 45.37340 4.59636 40117 ft 482 kts 348°
2026-04-30 10:56 45.43967 4.58113 40125 ft 482 kts 348°
2026-04-30 10:57 45.50592 4.56589 40124 ft 483 kts 348°
2026-04-30 10:57 45.57230 4.55060 40123 ft 483 kts 348°
2026-04-30 10:58 45.63859 4.53528 40125 ft 483 kts 348°
2026-04-30 10:58 45.70499 4.51989 40119 ft 483 kts 348°
2026-04-30 10:59 45.77134 4.50448 40121 ft 483 kts 348°
2026-04-30 10:59 45.83771 4.48903 40118 ft 483 kts 348°
2026-04-30 11:00 45.90410 4.47353 40115 ft 483 kts 348°
2026-04-30 11:00 45.97011 4.45809 40117 ft 484 kts 348°
2026-04-30 11:01 46.03653 4.44249 40119 ft 483 kts 347°
2026-04-30 11:01 46.10293 4.42690 40122 ft 483 kts 347°
2026-04-30 11:02 46.16931 4.41126 40121 ft 484 kts 347°
2026-04-30 11:02 46.23581 4.39555 40118 ft 484 kts 347°
2026-04-30 11:03 46.30227 4.37961 40116 ft 483 kts 346°
2026-04-30 11:04 46.40007 4.34581 40113 ft 482 kts 342°
2026-04-30 11:04 46.46493 4.32136 40115 ft 482 kts 342°
2026-04-30 11:05 46.52997 4.29778 40117 ft 482 kts 343°
2026-04-30 11:05 46.59518 4.27470 40117 ft 482 kts 343°
2026-04-30 11:06 46.66039 4.25169 40122 ft 482 kts 343°
2026-04-30 11:06 46.72523 4.22877 40126 ft 482 kts 343°
2026-04-30 11:07 46.79049 4.20557 40128 ft 483 kts 343°
2026-04-30 11:07 46.84478 4.18622 40127 ft 483 kts 343°
2026-04-30 11:08 46.91007 4.16290 40129 ft 483 kts 343°
2026-04-30 11:08 46.97533 4.13954 40127 ft 483 kts 343°
2026-04-30 11:09 47.04062 4.11611 40127 ft 483 kts 343°
2026-04-30 11:09 47.10396 4.08474 40123 ft 480 kts 336°
2026-04-30 11:10 47.16607 4.04875 40122 ft 480 kts 335°
2026-04-30 11:10 47.22795 4.01184 40124 ft 480 kts 335°
2026-04-30 11:11 47.28943 3.97513 40126 ft 480 kts 335°
2026-04-30 11:11 47.34762 3.94045 40124 ft 480 kts 335°
2026-04-30 11:12 47.40957 3.90352 40127 ft 480 kts 335°
2026-04-30 11:12 47.47159 3.86647 40128 ft 480 kts 335°
2026-04-30 11:13 47.53350 3.82937 40124 ft 480 kts 335°
2026-04-30 11:13 47.59548 3.79219 40129 ft 480 kts 335°
2026-04-30 11:14 47.65742 3.75491 40134 ft 480 kts 335°
2026-04-30 11:14 47.71939 3.71750 40137 ft 480 kts 335°
2026-04-30 11:15 47.78131 3.68001 40136 ft 480 kts 335°
2026-04-30 11:15 47.84326 3.64243 40139 ft 480 kts 335°
2026-04-30 11:16 47.90475 3.60504 40142 ft 480 kts 335°
2026-04-30 11:16 47.96662 3.56731 40137 ft 480 kts 335°
2026-04-30 11:17 48.02846 3.52943 40141 ft 480 kts 335°
2026-04-30 11:17 48.09024 3.49139 40142 ft 480 kts 335°
2026-04-30 11:18 48.15201 3.45326 40145 ft 480 kts 335°
2026-04-30 11:18 48.24460 3.39594 40149 ft 480 kts 335°
2026-04-30 11:19 48.30628 3.35762 40153 ft 480 kts 335°
2026-04-30 11:19 48.36794 3.31924 40157 ft 479 kts 335°
2026-04-30 11:20 48.42953 3.28082 40159 ft 479 kts 335°
2026-04-30 11:20 48.49100 3.24172 40161 ft 479 kts 335°
2026-04-30 11:21 48.55190 3.20264 40164 ft 479 kts 335°
2026-04-30 11:21 48.61316 3.16323 40167 ft 479 kts 335°
2026-04-30 11:22 48.67454 3.12374 40170 ft 479 kts 335°
2026-04-30 11:22 48.73587 3.08428 40171 ft 479 kts 335°
2026-04-30 11:23 48.79721 3.04467 40174 ft 479 kts 335°
2026-04-30 11:24 48.88683 2.97735 40176 ft 479 kts 329°
2026-04-30 11:24 48.94468 2.92724 40180 ft 479 kts 328°
2026-04-30 11:25 49.03114 2.85098 40179 ft 478 kts 329°
2026-04-30 11:26 49.14740 2.74790 40182 ft 490 kts 331°
2026-04-30 11:26 49.20648 2.69588 40179 ft 490 kts 331°
2026-04-30 11:27 49.26546 2.64369 40185 ft 490 kts 331°
2026-04-30 11:27 49.32441 2.59132 40187 ft 490 kts 331°
2026-04-30 11:28 49.41251 2.51272 40186 ft 490 kts 330°
2026-04-30 11:29 49.47145 2.45985 40190 ft 490 kts 330°
2026-04-30 11:29 49.56017 2.38123 40190 ft 490 kts 332°
2026-04-30 11:30 49.64997 2.30613 40192 ft 490 kts 332°
2026-04-30 11:31 49.70980 2.25582 40198 ft 490 kts 332°
2026-04-30 11:31 49.76956 2.20503 40200 ft 489 kts 332°
2026-04-30 11:32 49.82876 2.15438 40204 ft 490 kts 332°
2026-04-30 11:32 49.88841 2.10321 40209 ft 490 kts 332°
2026-04-30 11:33 49.94798 2.05202 39929 ft 489 kts 332°
2026-04-30 11:33 49.97777 2.02637 39703 ft 490 kts 332°
2026-04-30 11:33 50.00758 2.00066 39464 ft 490 kts 332°
2026-04-30 11:33 50.03741 1.97488 39231 ft 491 kts 332°
2026-04-30 11:34 50.06726 1.94904 39007 ft 491 kts 332°
2026-04-30 11:34 50.09715 1.92316 38754 ft 491 kts 332°
2026-04-30 11:34 50.12706 1.89721 38455 ft 493 kts 332°
2026-04-30 11:34 50.15676 1.87008 38173 ft 495 kts 328°
2026-04-30 11:35 50.18408 1.83751 37644 ft 493 kts 320°
2026-04-30 11:35 50.20928 1.80218 37037 ft 494 kts 318°
2026-04-30 11:35 50.23453 1.76480 36378 ft 495 kts 316°
2026-04-30 11:35 50.25887 1.72760 35721 ft 496 kts 316°
2026-04-30 11:36 50.28344 1.68956 35015 ft 499 kts 316°
2026-04-30 11:36 50.30820 1.65110 34242 ft 504 kts 316°
2026-04-30 11:36 50.33324 1.61233 33386 ft 507 kts 316°
2026-04-30 11:36 50.35842 1.57347 32568 ft 510 kts 316°
2026-04-30 11:37 50.38384 1.53432 31742 ft 512 kts 316°
2026-04-30 11:37 50.40935 1.49504 30893 ft 515 kts 316°
2026-04-30 11:37 50.43505 1.45547 29973 ft 519 kts 316°
2026-04-30 11:37 50.46081 1.41571 29089 ft 520 kts 316°
2026-04-30 11:38 50.48647 1.37603 28468 ft 515 kts 316°
2026-04-30 11:38 50.51162 1.33632 27844 ft 511 kts 314°
2026-04-30 11:38 50.53566 1.29544 27223 ft 507 kts 313°
2026-04-30 11:38 50.55933 1.25455 26583 ft 504 kts 313°
2026-04-30 11:39 50.58291 1.21400 25955 ft 501 kts 313°
2026-04-30 11:39 50.60707 1.17483 25324 ft 497 kts 316°
2026-04-30 11:39 50.63151 1.13655 24711 ft 494 kts 316°
2026-04-30 11:39 50.65549 1.09901 24114 ft 491 kts 316°
2026-04-30 11:40 50.67997 1.06051 23438 ft 488 kts 316°
2026-04-30 11:40 50.70358 1.02324 22799 ft 484 kts 315°
2026-04-30 11:40 50.72721 0.98581 22173 ft 478 kts 315°
2026-04-30 11:40 50.75051 0.94879 21596 ft 473 kts 315°
2026-04-30 11:41 50.77360 0.91205 20972 ft 468 kts 315°
2026-04-30 11:41 50.79646 0.87560 20366 ft 464 kts 315°
2026-04-30 11:41 50.81906 0.83950 19744 ft 460 kts 315°
2026-04-30 11:41 50.84145 0.80368 19294 ft 453 kts 314°
2026-04-30 11:42 50.86319 0.76885 19163 ft 437 kts 314°
2026-04-30 11:42 50.88423 0.73517 19033 ft 422 kts 314°
2026-04-30 11:42 50.90454 0.70251 18875 ft 411 kts 314°
2026-04-30 11:42 50.92494 0.66963 18762 ft 420 kts 314°
2026-04-30 11:43 50.94538 0.63667 18541 ft 418 kts 314°
2026-04-30 11:43 50.96569 0.60387 18304 ft 416 kts 314°
2026-04-30 11:43 50.98597 0.57114 17996 ft 415 kts 314°
2026-04-30 11:43 51.00619 0.53844 17363 ft 414 kts 314°
2026-04-30 11:44 51.02648 0.50554 16420 ft 421 kts 314°
2026-04-30 11:44 51.04708 0.47210 15697 ft 423 kts 314°
2026-04-30 11:44 51.06734 0.43921 15116 ft 421 kts 314°
2026-04-30 11:44 51.08796 0.40674 14760 ft 412 kts 316°
2026-04-30 11:45 51.10840 0.37585 14559 ft 399 kts 316°
2026-04-30 11:45 51.12796 0.34630 14238 ft 374 kts 316°
2026-04-30 11:45 51.14624 0.31860 13863 ft 352 kts 317°
2026-04-30 11:45 51.16347 0.29240 13343 ft 337 kts 316°
2026-04-30 11:46 51.18021 0.26672 12571 ft 332 kts 316°
2026-04-30 11:46 51.19671 0.24133 11788 ft 328 kts 316°
2026-04-30 11:46 51.21302 0.21619 11053 ft 325 kts 316°
2026-04-30 11:46 51.22721 0.18773 10465 ft 330 kts 297°
2026-04-30 11:47 51.23489 0.15394 10288 ft 319 kts 283°
2026-04-30 11:47 51.24005 0.11995 10055 ft 313 kts 281°
2026-04-30 11:47 51.24494 0.08602 9684 ft 311 kts 281°
2026-04-30 11:47 51.24980 0.05244 9274 ft 309 kts 281°
2026-04-30 11:48 51.25465 0.01914 8903 ft 307 kts 281°
2026-04-30 11:48 51.25951 -0.01384 8544 ft 305 kts 281°
2026-04-30 11:48 51.26432 -0.04622 8275 ft 304 kts 281°
2026-04-30 11:48 51.26921 -0.07875 8001 ft 299 kts 281°
2026-04-30 11:49 51.27412 -0.11109 7607 ft 300 kts 281°
2026-04-30 11:49 51.27905 -0.14331 7252 ft 298 kts 281°
2026-04-30 11:49 51.28399 -0.17542 6878 ft 297 kts 281°
2026-04-30 11:49 51.28895 -0.20740 6552 ft 296 kts 281°
2026-04-30 11:50 51.29394 -0.23938 6294 ft 296 kts 281°
2026-04-30 11:50 51.29892 -0.27126 6044 ft 296 kts 281°
2026-04-30 11:50 51.30390 -0.30310 5703 ft 294 kts 281°
2026-04-30 11:50 51.30889 -0.33485 5348 ft 295 kts 281°
2026-04-30 11:51 51.31389 -0.36670 4971 ft 295 kts 281°
2026-04-30 11:51 51.31886 -0.39852 4614 ft 295 kts 281°
2026-04-30 11:51 51.32373 -0.43029 4276 ft 293 kts 281°
2026-04-30 11:51 51.32848 -0.46185 3941 ft 291 kts 281°
2026-04-30 11:52 51.33310 -0.49328 3612 ft 289 kts 281°
2026-04-30 11:52 51.33758 -0.52415 3434 ft 280 kts 281°
2026-04-30 11:52 51.34180 -0.55401 3274 ft 270 kts 281°
2026-04-30 11:52 51.34571 -0.58290 3199 ft 261 kts 280°
2026-04-30 11:53 51.35028 -0.61037 3076 ft 253 kts 293°
2026-04-30 11:53 51.36074 -0.63211 2981 ft 243 kts 323°
2026-04-30 11:53 51.37035 -0.64054 2919 ft 234 kts 344°
2026-04-30 11:53 51.38560 -0.64761 2876 ft 224 kts 347°
2026-04-30 11:54 51.40025 -0.65531 2837 ft 219 kts 346°
2026-04-30 11:54 51.41462 -0.66299 2643 ft 216 kts 346°
2026-04-30 11:54 51.43365 -0.67216 2323 ft 213 kts 348°
2026-04-30 11:54 51.44761 -0.67408 2274 ft 190 kts 14°
2026-04-30 11:55 51.45889 -0.66568 2178 ft 171 kts 43°
2026-04-30 11:55 51.46429 -0.65714 2137 ft 159 kts 56°
2026-04-30 11:55 51.46970 -0.64250 2079 ft 149 kts 71°
2026-04-30 11:55 51.47256 -0.62674 1912 ft 147 kts 77°
2026-04-30 11:56 51.47577 -0.61120 1664 ft 148 kts 78°
2026-04-30 11:56 51.47727 -0.59535 1452 ft 138 kts 92°
2026-04-30 11:56 51.47733 -0.58057 1265 ft 127 kts 92°
2026-04-30 11:56 51.47712 -0.56671 1034 ft 123 kts 90°
2026-04-30 11:57 51.47721 -0.55291 919 ft 127 kts 90°
2026-04-30 11:57 51.47725 -0.53865 817 ft 129 kts 91°
2026-04-30 11:57 51.47739 -0.52434 593 ft 126 kts 90°
2026-04-30 11:57 51.47747 -0.51035 431 ft 126 kts 90°
2026-04-30 11:58 51.47750 -0.49635 262 ft 125 kts 89°
2026-04-30 11:58 51.47754 -0.48244 114 ft 125 kts 90°
2026-04-30 11:58 51.47757 -0.46970 97 ft 95 kts 89°
2026-04-30 11:58 51.47760 -0.46132 95 ft 55 kts 90°
2026-04-30 11:59 51.47760 -0.45715 93 ft 28 kts 90°
2026-04-30 11:59 51.47738 -0.45491 95 ft 14 kts 133°
2026-04-30 11:59 51.47653 -0.45469 92 ft 5 kts 180°
2026-04-30 11:59 51.47614 -0.45493 97 ft 8 kts 221°
2026-04-30 12:00 51.47596 -0.45581 96 ft 10 kts 267°
2026-04-30 12:00 51.47594 -0.45712 96 ft 13 kts 269°
2026-04-30 12:00 51.47594 -0.45879 96 ft 17 kts 270°
2026-04-30 12:00 51.47594 -0.46081 96 ft 20 kts 270°
2026-04-30 12:01 51.47594 -0.46318 96 ft 23 kts 270°
2026-04-30 12:01 51.47592 -0.46587 93 ft 26 kts 270°
2026-04-30 12:01 51.47591 -0.46818 93 ft 18 kts 267°
2026-04-30 12:01 51.47556 -0.46930 97 ft 9 kts 198°
2026-04-30 12:02 51.47488 -0.46913 95 ft 12 kts 168°
2026-04-30 12:02 51.47398 -0.46881 96 ft 15 kts 170°
2026-04-30 12:02 51.47288 -0.46868 94 ft 17 kts 179°
2026-04-30 12:02 51.47160 -0.46868 93 ft 20 kts 179°
2026-04-30 12:03 51.47074 -0.46855 94 ft 8 kts 154°
2026-04-30 12:03 51.47041 -0.46721 95 ft 6 kts 132°
2026-04-30 12:03 51.46993 -0.46665 97 ft 9 kts 140°
2026-04-30 12:04 51.46992 -0.46599 97 ft 6 kts 57°
2026-04-30 12:04 51.47010 -0.46556 96 ft 3 kts 56°
2026-04-30 12:04 51.47015 -0.46544 95 ft 0 kts 55°
2026-04-30 12:04 51.47016 -0.46542 95 ft 1 kts 55°
2026-04-30 12:05 51.47017 -0.46539 95 ft 0 kts 55°